Voltar ao catálogo

FENGYUN 1C DEB

AtivoSSO
NORAD 35201·DEBRIS·🇨🇳 China

Lançado May 10, 1999 de Taiyuan Satellite Launch Center

Loading…

Próximas Passagens (próximas 24 horas)

TLE

AtualizadoSource: Space-Track

Época: Sep 14, 2026, 21:43 UTC

1 35201U 99025DPH 26257.90530179  .00000112  00000-0  85910-4 0  9993
2 35201  98.7074 263.5607 0006730 178.4359 298.2531 14.11147267909147

Acompanhe FENGYUN 1C DEB em tempo real com AllMySat

Download on the App Store